Military
NORAD ID: 38733
Int'l Code: 2012-041A
Perigee: 1,488.6 km
Apogee: 1,519.0 km
Inclination: 82.5 °
Period: 115.9 minutes
Semi major axis: 7874 km
Launch date: July 28, 2012
Source: Commonwealth of Independent States (former USSR) (CIS)
Comments: COSMOS 2841 is a classified Russian military satellite. It will join a Russian network of about 70 military reconnaissance satellites.
Two Line Element Set (TLE):
1 38733U 12041A 13144.59248407 .00000010 00000-0 00000+0 0 8948
2 38733 082.4725 169.8629 0019315 029.9926 330.2257 12.42346305 37317
Source: AFSPC
NASA's NSSDC Master Catalog entry for COSMOS 2481